Year,Month,Day,Hour,Minute,Value (Times are PST for temperature in C)
2013,11,17,00,00,1.30
2013,11,17,00,01,1.20
2013,11,17,00,02,1.20
2013,11,17,00,03,1.20
2013,11,17,00,04,1.20
2013,11,17,00,05,1.20
2013,11,17,00,06,1.20
2013,11,17,00,07,1.20
2013,11,17,00,08,1.20
2013,11,17,00,09,1.30
2013,11,17,00,10,1.30
2013,11,17,00,11,1.30
2013,11,17,00,12,1.20
2013,11,17,00,13,1.20
2013,11,17,00,14,1.20
2013,11,17,00,15,1.20
2013,11,17,00,16,1.20
2013,11,17,00,17,1.20
2013,11,17,00,18,1.20
2013,11,17,00,19,1.10
2013,11,17,00,20,1.10
2013,11,17,00,21,1.10
2013,11,17,00,22,1.10
2013,11,17,00,23,1.10
2013,11,17,00,24,1.10
2013,11,17,00,25,1.10
2013,11,17,00,26,1.10
2013,11,17,00,27,1.10
2013,11,17,00,28,1.00
2013,11,17,00,29,1.00
2013,11,17,00,30,1.00
2013,11,17,00,31,1.00
2013,11,17,00,32,1.00
2013,11,17,00,33,1.00
2013,11,17,00,34,1.00
2013,11,17,00,35,1.00
2013,11,17,00,36,0.90
2013,11,17,00,37,0.90
2013,11,17,00,38,0.90
2013,11,17,00,39,0.90
2013,11,17,00,40,0.90
2013,11,17,00,41,0.90
2013,11,17,00,42,0.90
2013,11,17,00,43,0.90
2013,11,17,00,44,0.90
2013,11,17,00,45,0.90
2013,11,17,00,46,0.90
2013,11,17,00,47,0.90
2013,11,17,00,48,0.90
2013,11,17,00,49,0.80
2013,11,17,00,50,0.80
2013,11,17,00,51,0.80
2013,11,17,00,52,0.80
2013,11,17,00,53,0.80
2013,11,17,00,54,0.80
2013,11,17,00,55,0.80
2013,11,17,00,56,0.80
2013,11,17,00,57,0.80
2013,11,17,00,58,0.80
2013,11,17,00,59,0.80
2013,11,17,01,00,0.80
2013,11,17,01,01,0.80
2013,11,17,01,02,0.80
2013,11,17,01,03,0.80
2013,11,17,01,04,0.80
2013,11,17,01,05,0.80
2013,11,17,01,06,0.80
2013,11,17,01,07,0.80
2013,11,17,01,08,0.80
2013,11,17,01,09,0.80
2013,11,17,01,10,0.80
2013,11,17,01,11,0.80
2013,11,17,01,12,0.70
2013,11,17,01,13,0.70
2013,11,17,01,14,0.70
2013,11,17,01,15,0.70
2013,11,17,01,16,0.70
2013,11,17,01,17,0.70
2013,11,17,01,18,0.70
2013,11,17,01,19,0.70
2013,11,17,01,20,0.70
2013,11,17,01,21,0.70
2013,11,17,01,22,0.70
2013,11,17,01,23,0.70
2013,11,17,01,24,0.70
2013,11,17,01,25,0.70
2013,11,17,01,26,0.70
2013,11,17,01,27,0.70
2013,11,17,01,28,0.70
2013,11,17,01,29,0.70
2013,11,17,01,30,0.70
2013,11,17,01,31,0.70
2013,11,17,01,32,0.70
2013,11,17,01,33,0.70
2013,11,17,01,34,0.70
2013,11,17,01,35,0.70
2013,11,17,01,36,0.70
2013,11,17,01,37,0.70
2013,11,17,01,38,0.70
2013,11,17,01,39,0.70
2013,11,17,01,40,0.70
2013,11,17,01,41,0.70
2013,11,17,01,42,0.70
2013,11,17,01,43,0.70
2013,11,17,01,44,0.70
2013,11,17,01,45,0.70
2013,11,17,01,46,0.70
2013,11,17,01,47,0.70
2013,11,17,01,48,0.80
2013,11,17,01,49,0.80
2013,11,17,01,50,0.80
2013,11,17,01,51,0.80
2013,11,17,01,52,0.80
2013,11,17,01,53,0.80
2013,11,17,01,54,0.80
2013,11,17,01,55,0.80
2013,11,17,01,56,0.80
2013,11,17,01,57,0.90
2013,11,17,01,58,0.90
2013,11,17,01,59,0.90
2013,11,17,02,00,0.90
2013,11,17,02,01,0.90
2013,11,17,02,02,0.90
2013,11,17,02,03,0.90
2013,11,17,02,04,0.90
2013,11,17,02,05,0.90
2013,11,17,02,06,0.90
2013,11,17,02,07,0.90
2013,11,17,02,08,0.90
2013,11,17,02,09,0.90
2013,11,17,02,10,0.90
2013,11,17,02,11,1.00
2013,11,17,02,12,1.00
2013,11,17,02,13,1.00
2013,11,17,02,14,1.00
2013,11,17,02,15,1.00
2013,11,17,02,16,1.00
2013,11,17,02,17,1.00
2013,11,17,02,18,1.00
2013,11,17,02,19,1.00
2013,11,17,02,20,1.00
2013,11,17,02,21,1.00
2013,11,17,02,22,1.00
2013,11,17,02,23,1.00
2013,11,17,02,24,1.00
2013,11,17,02,25,1.00
2013,11,17,02,26,1.00
2013,11,17,02,27,1.10
2013,11,17,02,28,1.10
2013,11,17,02,29,1.10
2013,11,17,02,30,1.10
2013,11,17,02,31,1.10
2013,11,17,02,32,1.10
2013,11,17,02,33,1.20
2013,11,17,02,34,1.20
2013,11,17,02,35,1.20
2013,11,17,02,36,1.30
2013,11,17,02,37,1.30
2013,11,17,02,38,1.30
2013,11,17,02,39,1.30
2013,11,17,02,40,1.30
2013,11,17,02,41,1.30
2013,11,17,02,42,1.30
2013,11,17,02,43,1.30
2013,11,17,02,44,1.30
2013,11,17,02,45,1.30
2013,11,17,02,46,1.30
2013,11,17,02,47,1.30
2013,11,17,02,48,1.30
2013,11,17,02,49,1.30
2013,11,17,02,50,1.40
2013,11,17,02,51,1.40
2013,11,17,02,52,1.40
2013,11,17,02,53,1.40
2013,11,17,02,54,1.40
2013,11,17,02,55,1.50
2013,11,17,02,56,1.50
2013,11,17,02,57,1.50
2013,11,17,02,58,1.50
2013,11,17,02,59,1.60
2013,11,17,03,00,1.60
2013,11,17,03,01,1.60
2013,11,17,03,02,1.50
2013,11,17,03,03,1.50
2013,11,17,03,04,1.50
2013,11,17,03,05,1.50
2013,11,17,03,06,1.50
2013,11,17,03,07,1.50
2013,11,17,03,08,1.50
2013,11,17,03,09,1.40
2013,11,17,03,10,1.40
2013,11,17,03,11,1.40
2013,11,17,03,12,1.40
2013,11,17,03,13,1.40
2013,11,17,03,14,1.40
2013,11,17,03,15,1.40
2013,11,17,03,16,1.40
2013,11,17,03,17,1.40
2013,11,17,03,18,1.40
2013,11,17,03,19,1.40
2013,11,17,03,20,1.40
2013,11,17,03,21,1.40
2013,11,17,03,22,1.40
2013,11,17,03,23,1.40
2013,11,17,03,24,1.40
2013,11,17,03,25,1.50
2013,11,17,03,26,1.50
2013,11,17,03,27,1.50
2013,11,17,03,28,1.50
2013,11,17,03,29,1.50
2013,11,17,03,30,1.50
2013,11,17,03,31,1.60
2013,11,17,03,32,1.60
2013,11,17,03,33,1.60
2013,11,17,03,34,1.60
2013,11,17,03,35,1.60
2013,11,17,03,36,1.60
2013,11,17,03,37,1.70
2013,11,17,03,38,1.70
2013,11,17,03,39,1.70
2013,11,17,03,40,1.70
2013,11,17,03,41,1.70
2013,11,17,03,42,1.70
2013,11,17,03,43,1.70
2013,11,17,03,44,1.70
2013,11,17,03,45,1.70
2013,11,17,03,46,1.70
2013,11,17,03,47,1.70
2013,11,17,03,48,1.70
2013,11,17,03,49,1.70
2013,11,17,03,50,1.70
2013,11,17,03,51,1.70
2013,11,17,03,52,1.70
2013,11,17,03,53,1.70
2013,11,17,03,54,1.70
2013,11,17,03,55,1.70
2013,11,17,03,56,1.70
2013,11,17,03,57,1.70
2013,11,17,03,58,1.70
2013,11,17,03,59,1.70
2013,11,17,04,00,1.70
2013,11,17,04,01,1.80
2013,11,17,04,02,1.80
2013,11,17,04,03,1.80
2013,11,17,04,04,1.80
2013,11,17,04,05,1.90
2013,11,17,04,06,1.90
2013,11,17,04,07,1.90
2013,11,17,04,08,1.90
2013,11,17,04,09,2.00
2013,11,17,04,10,2.00
2013,11,17,04,11,2.00
2013,11,17,04,12,2.00
2013,11,17,04,13,2.10
2013,11,17,04,14,2.10
2013,11,17,04,15,2.20
2013,11,17,04,16,2.20
2013,11,17,04,17,2.20
2013,11,17,04,18,2.30
2013,11,17,04,19,2.30
2013,11,17,04,20,2.30
2013,11,17,04,21,2.30
2013,11,17,04,22,2.30
2013,11,17,04,23,2.30
2013,11,17,04,24,2.40
2013,11,17,04,25,2.40
2013,11,17,04,26,2.40
2013,11,17,04,27,2.40
2013,11,17,04,28,2.40
2013,11,17,04,29,2.40
2013,11,17,04,30,2.40
2013,11,17,04,31,2.40
2013,11,17,04,32,2.40
2013,11,17,04,33,2.40
2013,11,17,04,34,2.40
2013,11,17,04,35,2.40
2013,11,17,04,36,2.40
2013,11,17,04,37,2.30
2013,11,17,04,38,2.30
2013,11,17,04,39,2.30
2013,11,17,04,40,2.30
2013,11,17,04,41,2.30
2013,11,17,04,42,2.20
2013,11,17,04,43,2.20
2013,11,17,04,44,2.20
2013,11,17,04,45,2.20
2013,11,17,04,46,2.20
2013,11,17,04,47,2.20
2013,11,17,04,48,2.20
2013,11,17,04,49,2.20
2013,11,17,04,50,2.20
2013,11,17,04,51,2.20
2013,11,17,04,52,2.10
2013,11,17,04,53,2.20
2013,11,17,04,54,2.20
2013,11,17,04,55,2.20
2013,11,17,04,56,2.20
2013,11,17,04,57,2.20
2013,11,17,04,58,2.20
2013,11,17,04,59,2.20
2013,11,17,05,00,2.20
2013,11,17,05,01,2.20
2013,11,17,05,02,2.20
2013,11,17,05,03,2.20
2013,11,17,05,04,2.20
2013,11,17,05,05,2.20
2013,11,17,05,06,2.20
2013,11,17,05,07,2.20
2013,11,17,05,08,2.20
2013,11,17,05,09,2.10
2013,11,17,05,10,2.10
2013,11,17,05,11,2.10
2013,11,17,05,12,2.20
2013,11,17,05,13,2.20
2013,11,17,05,14,2.20
2013,11,17,05,15,2.20
2013,11,17,05,16,2.20
2013,11,17,05,17,2.20
2013,11,17,05,18,2.20
2013,11,17,05,19,2.20
2013,11,17,05,20,2.20
2013,11,17,05,21,2.30
2013,11,17,05,22,2.30
2013,11,17,05,23,2.30
2013,11,17,05,24,2.30
2013,11,17,05,25,2.30
2013,11,17,05,26,2.30
2013,11,17,05,27,2.30
2013,11,17,05,28,2.30
2013,11,17,05,29,2.30
2013,11,17,05,30,2.30
2013,11,17,05,31,2.30
2013,11,17,05,32,2.30
2013,11,17,05,33,2.30
2013,11,17,05,34,2.40
2013,11,17,05,35,2.40
2013,11,17,05,36,2.50
2013,11,17,05,37,2.60
2013,11,17,05,38,2.60
2013,11,17,05,39,2.70
2013,11,17,05,40,2.70
2013,11,17,05,41,2.80
2013,11,17,05,42,3.00
2013,11,17,05,43,3.10
2013,11,17,05,44,3.20
2013,11,17,05,45,3.30
2013,11,17,05,46,3.40
2013,11,17,05,47,3.50
2013,11,17,05,48,3.70
2013,11,17,05,49,3.70
2013,11,17,05,50,3.80
2013,11,17,05,51,3.90
2013,11,17,05,52,4.00
2013,11,17,05,53,4.10
2013,11,17,05,54,4.20
2013,11,17,05,55,4.20
2013,11,17,05,56,4.20
2013,11,17,05,57,4.30
2013,11,17,05,58,4.30
2013,11,17,05,59,4.30
2013,11,17,06,00,4.30
2013,11,17,06,01,4.30
2013,11,17,06,02,4.40
2013,11,17,06,03,4.40
2013,11,17,06,04,4.40
2013,11,17,06,05,4.50
2013,11,17,06,06,4.50
2013,11,17,06,07,4.60
2013,11,17,06,08,4.70
2013,11,17,06,09,4.70
2013,11,17,06,10,4.80
2013,11,17,06,11,4.80
2013,11,17,06,12,4.90
2013,11,17,06,13,4.90
2013,11,17,06,14,4.90
2013,11,17,06,15,5.00
2013,11,17,06,16,5.00
2013,11,17,06,17,5.00
2013,11,17,06,18,5.10
2013,11,17,06,19,5.10
2013,11,17,06,20,5.10
2013,11,17,06,21,5.10
2013,11,17,06,22,5.10
2013,11,17,06,23,5.10
2013,11,17,06,24,5.10
2013,11,17,06,25,5.10
2013,11,17,06,26,5.10
2013,11,17,06,27,5.10
2013,11,17,06,28,5.20
2013,11,17,06,29,5.20
2013,11,17,06,30,5.20
2013,11,17,06,31,5.20
2013,11,17,06,32,5.30
2013,11,17,06,33,5.30
2013,11,17,06,34,5.30
2013,11,17,06,35,5.30
2013,11,17,06,36,5.30
2013,11,17,06,37,5.40
2013,11,17,06,38,5.40
2013,11,17,06,39,5.40
2013,11,17,06,40,5.40
2013,11,17,06,41,5.40
2013,11,17,06,42,5.40
2013,11,17,06,43,5.40
2013,11,17,06,44,5.40
2013,11,17,06,45,5.40
2013,11,17,06,46,5.40
2013,11,17,06,47,5.40
2013,11,17,06,48,5.40
2013,11,17,06,49,5.40
2013,11,17,06,50,5.40
2013,11,17,06,51,5.40
2013,11,17,06,52,5.40
2013,11,17,06,53,5.40
2013,11,17,06,54,5.40
2013,11,17,06,55,5.50
2013,11,17,06,56,5.50
2013,11,17,06,57,5.50
2013,11,17,06,58,5.50
2013,11,17,06,59,5.50
2013,11,17,07,00,5.50
2013,11,17,07,01,5.50
2013,11,17,07,02,5.50
2013,11,17,07,03,5.50
2013,11,17,07,04,5.50
2013,11,17,07,05,5.50
2013,11,17,07,06,5.50
2013,11,17,07,07,5.50
2013,11,17,07,08,5.50
2013,11,17,07,09,5.40
2013,11,17,07,10,5.40
2013,11,17,07,11,5.40
2013,11,17,07,12,5.40
2013,11,17,07,13,5.50
2013,11,17,07,14,5.40
2013,11,17,07,15,5.40
2013,11,17,07,16,5.50
2013,11,17,07,17,5.50
2013,11,17,07,18,5.50
2013,11,17,07,19,5.50
2013,11,17,07,20,5.50
2013,11,17,07,21,5.50
2013,11,17,07,22,5.50
2013,11,17,07,23,5.50
2013,11,17,07,24,5.50
2013,11,17,07,25,5.50
2013,11,17,07,26,5.50
2013,11,17,07,27,5.50
2013,11,17,07,28,5.50
2013,11,17,07,29,5.50
2013,11,17,07,30,5.50
2013,11,17,07,31,5.50
2013,11,17,07,32,5.50
2013,11,17,07,33,5.50
2013,11,17,07,34,5.50
2013,11,17,07,35,5.50
2013,11,17,07,36,5.50
2013,11,17,07,37,5.50
2013,11,17,07,38,5.50
2013,11,17,07,39,5.50
2013,11,17,07,40,5.50
2013,11,17,07,41,5.50
2013,11,17,07,42,5.50
2013,11,17,07,43,5.50
2013,11,17,07,44,5.50
2013,11,17,07,45,5.50
2013,11,17,07,46,5.50
2013,11,17,07,47,5.50
2013,11,17,07,48,5.50
2013,11,17,07,49,5.50
2013,11,17,07,50,5.50
2013,11,17,07,51,5.50
2013,11,17,07,52,5.50
2013,11,17,07,53,5.50
2013,11,17,07,54,5.50
2013,11,17,07,55,5.50
2013,11,17,07,56,5.50
2013,11,17,07,57,5.50
2013,11,17,07,58,5.50
2013,11,17,07,59,5.50
2013,11,17,08,00,5.50
2013,11,17,08,01,5.60
2013,11,17,08,02,5.50
2013,11,17,08,03,5.60
2013,11,17,08,04,5.50
2013,11,17,08,05,5.60
2013,11,17,08,06,5.60
2013,11,17,08,07,5.60
2013,11,17,08,08,5.60
2013,11,17,08,09,5.60
2013,11,17,08,10,5.60
2013,11,17,08,11,5.60
2013,11,17,08,12,5.60
2013,11,17,08,13,5.60
2013,11,17,08,14,5.60
2013,11,17,08,15,5.60
2013,11,17,08,16,5.60
2013,11,17,08,17,5.60
2013,11,17,08,18,5.60
2013,11,17,08,19,5.70
2013,11,17,08,20,5.70
2013,11,17,08,21,5.70
2013,11,17,08,22,5.70
2013,11,17,08,23,5.70
2013,11,17,08,24,5.70
2013,11,17,08,25,5.70
2013,11,17,08,26,5.70
2013,11,17,08,27,5.70
2013,11,17,08,28,5.80
2013,11,17,08,29,5.80
2013,11,17,08,30,5.80
2013,11,17,08,31,5.80
2013,11,17,08,32,5.80
2013,11,17,08,33,5.90
2013,11,17,08,34,5.90
2013,11,17,08,35,5.90
2013,11,17,08,36,5.90
2013,11,17,08,37,5.90
2013,11,17,08,38,5.90
2013,11,17,08,39,5.90
2013,11,17,08,40,5.90
2013,11,17,08,41,5.90
2013,11,17,08,42,5.90
2013,11,17,08,43,5.90
2013,11,17,08,44,6.00
2013,11,17,08,45,6.00
2013,11,17,08,46,6.00
2013,11,17,08,47,6.00
2013,11,17,08,48,6.00
2013,11,17,08,49,6.00
2013,11,17,08,50,6.00
2013,11,17,08,51,6.00
2013,11,17,08,52,6.10
2013,11,17,08,53,6.10
2013,11,17,08,54,6.10
2013,11,17,08,55,6.10
2013,11,17,08,56,6.10
2013,11,17,08,57,6.20
2013,11,17,08,58,6.20
2013,11,17,08,59,6.20
2013,11,17,09,00,6.20
2013,11,17,09,01,6.30
2013,11,17,09,02,6.30
2013,11,17,09,03,6.30
2013,11,17,09,04,6.30
2013,11,17,09,05,6.30
2013,11,17,09,06,6.30
2013,11,17,09,07,6.40
2013,11,17,09,08,6.40
2013,11,17,09,09,6.40
2013,11,17,09,10,6.40
2013,11,17,09,11,6.40
2013,11,17,09,12,6.40
2013,11,17,09,13,6.50
2013,11,17,09,14,6.50
2013,11,17,09,15,6.50
2013,11,17,09,16,6.60
2013,11,17,09,17,6.60
2013,11,17,09,18,6.60
2013,11,17,09,19,6.60
2013,11,17,09,20,6.60
2013,11,17,09,21,6.60
2013,11,17,09,22,6.60
2013,11,17,09,23,6.70
2013,11,17,09,24,6.70
2013,11,17,09,25,6.70
2013,11,17,09,26,6.70
2013,11,17,09,27,6.70
2013,11,17,09,28,6.70
2013,11,17,09,29,6.70
2013,11,17,09,30,6.70
2013,11,17,09,31,6.70
2013,11,17,09,32,6.70
2013,11,17,09,33,6.70
2013,11,17,09,34,6.70
2013,11,17,09,35,6.70
2013,11,17,09,36,6.80
2013,11,17,09,37,6.80
2013,11,17,09,38,6.80
2013,11,17,09,39,6.80
2013,11,17,09,40,6.80
2013,11,17,09,41,6.80
2013,11,17,09,42,6.90
2013,11,17,09,43,6.90
2013,11,17,09,44,6.90
2013,11,17,09,45,6.90
2013,11,17,09,46,7.00
2013,11,17,09,47,7.00
2013,11,17,09,48,7.10
2013,11,17,09,49,7.10
2013,11,17,09,50,7.20
2013,11,17,09,51,7.20
2013,11,17,09,52,7.20
2013,11,17,09,53,7.20
2013,11,17,09,54,7.20
2013,11,17,09,55,7.20
2013,11,17,09,56,7.20
2013,11,17,09,57,7.20
2013,11,17,09,58,7.20
2013,11,17,09,59,7.20
2013,11,17,10,00,7.20
2013,11,17,10,01,7.20
2013,11,17,10,02,7.20
2013,11,17,10,03,7.20
2013,11,17,10,04,7.20
2013,11,17,10,05,7.20
2013,11,17,10,06,7.20
2013,11,17,10,07,7.20
2013,11,17,10,08,7.30
2013,11,17,10,09,7.40
2013,11,17,10,10,7.40
2013,11,17,10,11,7.40
2013,11,17,10,12,7.40
2013,11,17,10,13,7.40
2013,11,17,10,14,7.40
2013,11,17,10,15,7.50
2013,11,17,10,16,7.50
2013,11,17,10,17,7.60
2013,11,17,10,18,7.60
2013,11,17,10,19,7.70
2013,11,17,10,20,7.80
2013,11,17,10,21,7.80
2013,11,17,10,22,7.80
2013,11,17,10,23,7.80
2013,11,17,10,24,7.90
2013,11,17,10,25,8.00
2013,11,17,10,26,8.00
2013,11,17,10,27,8.00
2013,11,17,10,28,8.00
2013,11,17,10,29,8.00
2013,11,17,10,30,7.90
2013,11,17,10,31,7.90
2013,11,17,10,32,7.90
2013,11,17,10,33,8.00
2013,11,17,10,34,8.00
2013,11,17,10,35,8.10
2013,11,17,10,36,8.10
2013,11,17,10,37,8.20
2013,11,17,10,38,8.20
2013,11,17,10,39,8.20
2013,11,17,10,40,8.20
2013,11,17,10,41,8.20
2013,11,17,10,42,8.20
2013,11,17,10,43,8.10
2013,11,17,10,44,8.10
2013,11,17,10,45,8.10
2013,11,17,10,46,8.10
2013,11,17,10,47,8.20
2013,11,17,10,48,8.20
2013,11,17,10,49,8.30
2013,11,17,10,50,8.40
2013,11,17,10,51,8.40
2013,11,17,10,52,8.50
2013,11,17,10,53,8.50
2013,11,17,10,54,8.60
2013,11,17,10,55,8.60
2013,11,17,10,56,8.70
2013,11,17,10,57,8.80
2013,11,17,10,58,8.80
2013,11,17,10,59,8.80
2013,11,17,11,00,8.70
2013,11,17,11,01,8.70
2013,11,17,11,02,8.70
2013,11,17,11,03,8.70
2013,11,17,11,04,8.70
2013,11,17,11,05,8.60
2013,11,17,11,06,8.60
2013,11,17,11,07,8.70
2013,11,17,11,08,8.70
2013,11,17,11,09,8.70
2013,11,17,11,10,8.70
2013,11,17,11,11,8.80
2013,11,17,11,12,8.80
2013,11,17,11,13,8.80
2013,11,17,11,14,8.80
2013,11,17,11,15,8.70
2013,11,17,11,16,8.70
2013,11,17,11,17,8.70
2013,11,17,11,18,8.70
2013,11,17,11,19,8.70
2013,11,17,11,20,8.70
2013,11,17,11,21,8.80
2013,11,17,11,22,8.80
2013,11,17,11,23,8.90
2013,11,17,11,24,9.00
2013,11,17,11,25,9.00
2013,11,17,11,26,9.10
2013,11,17,11,27,9.10
2013,11,17,11,28,9.20
2013,11,17,11,29,9.20
2013,11,17,11,30,9.20
2013,11,17,11,31,9.20
2013,11,17,11,32,9.20
2013,11,17,11,33,9.20
2013,11,17,11,34,9.20
2013,11,17,11,35,9.30
2013,11,17,11,36,9.40
2013,11,17,11,37,9.50
2013,11,17,11,38,9.60
2013,11,17,11,39,9.60
2013,11,17,11,40,9.70
2013,11,17,11,41,9.70
2013,11,17,11,42,9.80
2013,11,17,11,43,9.80
2013,11,17,11,44,9.80
2013,11,17,11,45,9.80
2013,11,17,11,46,9.70
2013,11,17,11,47,9.80
2013,11,17,11,48,9.90
2013,11,17,11,49,9.90
2013,11,17,11,50,9.90
2013,11,17,11,51,9.90
2013,11,17,11,52,9.80
2013,11,17,11,53,9.70
2013,11,17,11,54,9.60
2013,11,17,11,55,9.60
2013,11,17,11,56,9.60
2013,11,17,11,57,9.60
2013,11,17,11,58,9.50
2013,11,17,11,59,9.50
2013,11,17,12,00,9.60
2013,11,17,12,01,9.60
2013,11,17,12,02,9.60
2013,11,17,12,03,9.60
2013,11,17,12,04,9.50
2013,11,17,12,05,9.50
2013,11,17,12,06,9.40
2013,11,17,12,07,9.40
2013,11,17,12,08,9.40
2013,11,17,12,09,9.30
2013,11,17,12,10,9.20
2013,11,17,12,11,9.20
2013,11,17,12,12,9.10
2013,11,17,12,13,9.10
2013,11,17,12,14,9.10
2013,11,17,12,15,9.10
2013,11,17,12,16,9.10
2013,11,17,12,17,9.20
2013,11,17,12,18,9.20
2013,11,17,12,19,9.20
2013,11,17,12,20,9.30
2013,11,17,12,21,9.30
2013,11,17,12,22,9.30
2013,11,17,12,23,9.40
2013,11,17,12,24,9.50
2013,11,17,12,25,9.50
2013,11,17,12,26,9.50
2013,11,17,12,27,9.60
2013,11,17,12,28,9.60
2013,11,17,12,29,9.60
2013,11,17,12,30,9.60
2013,11,17,12,31,9.60
2013,11,17,12,32,9.60
2013,11,17,12,33,9.70
2013,11,17,12,34,9.70
2013,11,17,12,35,9.70
2013,11,17,12,36,9.80
2013,11,17,12,37,9.80
2013,11,17,12,38,9.80
2013,11,17,12,39,9.90
2013,11,17,12,40,10.00
2013,11,17,12,41,10.10
2013,11,17,12,42,10.20
2013,11,17,12,43,10.20
2013,11,17,12,44,10.30
2013,11,17,12,45,10.30
2013,11,17,12,46,10.20
2013,11,17,12,47,10.30
2013,11,17,12,48,10.30
2013,11,17,12,49,10.30
2013,11,17,12,50,10.30
2013,11,17,12,51,10.30
2013,11,17,12,52,10.40
2013,11,17,12,53,10.40
2013,11,17,12,54,10.40
2013,11,17,12,55,10.40
2013,11,17,12,56,10.40
2013,11,17,12,57,10.40
2013,11,17,12,58,10.40
2013,11,17,12,59,10.40
2013,11,17,13,00,10.40
2013,11,17,13,01,10.40
2013,11,17,13,02,10.50
2013,11,17,13,03,10.40
2013,11,17,13,04,10.40
2013,11,17,13,05,10.40
2013,11,17,13,06,10.40
2013,11,17,13,07,10.50
2013,11,17,13,08,10.60
2013,11,17,13,09,10.70
2013,11,17,13,10,10.70
2013,11,17,13,11,10.80
2013,11,17,13,12,10.80
2013,11,17,13,13,10.90
2013,11,17,13,14,11.10
2013,11,17,13,15,11.20
2013,11,17,13,16,11.20
2013,11,17,13,17,11.30
2013,11,17,13,18,11.30
2013,11,17,13,19,11.40
2013,11,17,13,20,11.40
2013,11,17,13,21,11.40
2013,11,17,13,22,11.50
2013,11,17,13,23,11.50
2013,11,17,13,24,11.60
2013,11,17,13,25,11.60
2013,11,17,13,26,11.70
2013,11,17,13,27,11.70
2013,11,17,13,28,11.80
2013,11,17,13,29,11.80
2013,11,17,13,30,11.80
2013,11,17,13,31,11.80
2013,11,17,13,32,11.80
2013,11,17,13,33,11.90
2013,11,17,13,34,12.00
2013,11,17,13,35,12.00
2013,11,17,13,36,12.00
2013,11,17,13,37,12.10
2013,11,17,13,38,12.10
2013,11,17,13,39,12.20
2013,11,17,13,40,12.10
2013,11,17,13,41,12.10
2013,11,17,13,42,12.10
2013,11,17,13,43,12.00
2013,11,17,13,44,11.90
2013,11,17,13,45,11.90
2013,11,17,13,46,11.80
2013,11,17,13,47,11.80
2013,11,17,13,48,11.80
2013,11,17,13,49,11.70
2013,11,17,13,50,11.60
2013,11,17,13,51,11.50
2013,11,17,13,52,11.50
2013,11,17,13,53,11.40
2013,11,17,13,54,11.30
2013,11,17,13,55,11.30
2013,11,17,13,56,11.20
2013,11,17,13,57,11.20
2013,11,17,13,58,11.20
2013,11,17,13,59,11.20
2013,11,17,14,00,11.20
2013,11,17,14,01,11.20
2013,11,17,14,02,11.20
2013,11,17,14,03,11.10
2013,11,17,14,04,11.10
2013,11,17,14,05,11.10
2013,11,17,14,06,11.10
2013,11,17,14,07,11.10
2013,11,17,14,08,11.10
2013,11,17,14,09,11.10
2013,11,17,14,10,11.20
2013,11,17,14,11,11.10
2013,11,17,14,12,11.10
2013,11,17,14,13,11.00
2013,11,17,14,14,11.00
2013,11,17,14,15,10.90
2013,11,17,14,16,10.90
2013,11,17,14,17,10.80
2013,11,17,14,18,10.80
2013,11,17,14,19,10.80
2013,11,17,14,20,10.80
2013,11,17,14,21,10.80
2013,11,17,14,22,10.80
2013,11,17,14,23,10.80
2013,11,17,14,24,10.80
2013,11,17,14,25,10.90
2013,11,17,14,26,10.90
2013,11,17,14,27,10.90
2013,11,17,14,28,11.00
2013,11,17,14,29,11.00
2013,11,17,14,30,11.00
2013,11,17,14,31,11.00
2013,11,17,14,32,11.00
2013,11,17,14,33,11.00
2013,11,17,14,34,11.00
2013,11,17,14,35,10.90
2013,11,17,14,36,10.90
2013,11,17,14,37,10.80
2013,11,17,14,38,10.80
2013,11,17,14,39,10.80
2013,11,17,14,40,10.80
2013,11,17,14,41,10.80
2013,11,17,14,42,10.80
2013,11,17,14,43,10.80
2013,11,17,14,44,10.80
2013,11,17,14,45,10.70
2013,11,17,14,46,10.70
2013,11,17,14,47,10.60
2013,11,17,14,48,10.60
2013,11,17,14,49,10.50
2013,11,17,14,50,10.50
2013,11,17,14,51,10.40
2013,11,17,14,52,10.30
2013,11,17,14,53,10.30
2013,11,17,14,54,10.30
2013,11,17,14,55,10.30
2013,11,17,14,56,10.30
2013,11,17,14,57,10.30
2013,11,17,14,58,10.30
2013,11,17,14,59,10.20
2013,11,17,15,00,10.20
2013,11,17,15,01,10.20
2013,11,17,15,02,10.20
2013,11,17,15,03,10.20
2013,11,17,15,04,10.10
2013,11,17,15,05,10.10
2013,11,17,15,06,10.00
2013,11,17,15,07,10.00
2013,11,17,15,08,9.90
2013,11,17,15,09,9.90
2013,11,17,15,10,9.80
2013,11,17,15,11,9.80
2013,11,17,15,12,9.80
2013,11,17,15,13,9.80
2013,11,17,15,14,9.70
2013,11,17,15,15,9.70
2013,11,17,15,16,9.70
2013,11,17,15,17,9.70
2013,11,17,15,18,9.60
2013,11,17,15,19,9.60
2013,11,17,15,20,9.60
2013,11,17,15,21,9.60
2013,11,17,15,22,9.60
2013,11,17,15,23,9.50
2013,11,17,15,24,9.50
2013,11,17,15,25,9.40
2013,11,17,15,26,9.40
2013,11,17,15,27,9.40
2013,11,17,15,28,9.40
2013,11,17,15,29,9.30
2013,11,17,15,30,9.30
2013,11,17,15,31,9.30
2013,11,17,15,32,9.30
2013,11,17,15,33,9.30
2013,11,17,15,34,9.30
2013,11,17,15,35,9.20
2013,11,17,15,36,9.20
2013,11,17,15,37,9.10
2013,11,17,15,38,9.10
2013,11,17,15,39,9.10
2013,11,17,15,40,9.10
2013,11,17,15,41,9.10
2013,11,17,15,42,9.00
2013,11,17,15,43,9.00
2013,11,17,15,44,9.00
2013,11,17,15,45,8.90
2013,11,17,15,46,8.90
2013,11,17,15,47,8.90
2013,11,17,15,48,8.90
2013,11,17,15,49,8.80
2013,11,17,15,50,8.80
2013,11,17,15,51,8.80
2013,11,17,15,52,8.80
2013,11,17,15,53,8.80
2013,11,17,15,54,8.80
2013,11,17,15,55,8.80
2013,11,17,15,56,8.80
2013,11,17,15,57,8.80
2013,11,17,15,58,8.70
2013,11,17,15,59,8.70
2013,11,17,16,00,8.70
2013,11,17,16,01,8.70
2013,11,17,16,02,8.70
2013,11,17,16,03,8.70
2013,11,17,16,04,8.70
2013,11,17,16,05,8.70
2013,11,17,16,06,8.70
2013,11,17,16,07,8.60
2013,11,17,16,08,8.60
2013,11,17,16,09,8.60
2013,11,17,16,10,8.60
2013,11,17,16,11,8.60
2013,11,17,16,12,8.60
2013,11,17,16,13,8.50
2013,11,17,16,14,8.50
2013,11,17,16,15,8.50
2013,11,17,16,16,8.50
2013,11,17,16,17,8.40
2013,11,17,16,18,8.40
2013,11,17,16,19,8.40
2013,11,17,16,20,8.40
2013,11,17,16,21,8.40
2013,11,17,16,22,8.40
2013,11,17,16,23,8.40
2013,11,17,16,24,8.40
2013,11,17,16,25,8.40
2013,11,17,16,26,8.40
2013,11,17,16,27,8.40
2013,11,17,16,28,8.30
2013,11,17,16,29,8.30
2013,11,17,16,30,8.30
2013,11,17,16,31,8.20
2013,11,17,16,32,8.20
2013,11,17,16,33,8.20
2013,11,17,16,34,8.10
2013,11,17,16,35,8.10
2013,11,17,16,36,8.10
2013,11,17,16,37,8.10
2013,11,17,16,38,8.10
2013,11,17,16,39,8.00
2013,11,17,16,40,8.00
2013,11,17,16,41,8.00
2013,11,17,16,42,8.00
2013,11,17,16,43,8.00
2013,11,17,16,44,8.00
2013,11,17,16,45,8.00
2013,11,17,16,46,8.00
2013,11,17,16,47,8.00
2013,11,17,16,48,8.00
2013,11,17,16,49,7.90
2013,11,17,16,50,7.90
2013,11,17,16,51,7.90
2013,11,17,16,52,7.90
2013,11,17,16,53,7.90
2013,11,17,16,54,7.90
2013,11,17,16,55,7.90
2013,11,17,16,56,7.90
2013,11,17,16,57,7.90
2013,11,17,16,58,7.90
2013,11,17,16,59,7.90
2013,11,17,17,00,7.90
2013,11,17,17,01,7.90
2013,11,17,17,02,7.90
2013,11,17,17,03,7.90
2013,11,17,17,04,7.90
2013,11,17,17,05,8.00
2013,11,17,17,06,8.00
2013,11,17,17,07,8.00
2013,11,17,17,08,8.00
2013,11,17,17,09,8.00
2013,11,17,17,10,8.00
2013,11,17,17,11,8.00
2013,11,17,17,12,7.90
2013,11,17,17,13,7.90
2013,11,17,17,14,7.90
2013,11,17,17,15,7.90
2013,11,17,17,16,7.90
2013,11,17,17,17,7.80
2013,11,17,17,18,7.80
2013,11,17,17,19,7.80
2013,11,17,17,20,7.80
2013,11,17,17,21,7.80
2013,11,17,17,22,7.80
2013,11,17,17,23,7.80
2013,11,17,17,24,7.80
2013,11,17,17,25,7.70
2013,11,17,17,26,7.70
2013,11,17,17,27,7.70
2013,11,17,17,28,7.70
2013,11,17,17,29,7.70
2013,11,17,17,30,7.60
2013,11,17,17,31,7.60
2013,11,17,17,32,7.60
2013,11,17,17,33,7.60
2013,11,17,17,34,7.60
2013,11,17,17,35,7.60
2013,11,17,17,36,7.50
2013,11,17,17,37,7.50
2013,11,17,17,38,7.50
2013,11,17,17,39,7.50
2013,11,17,17,40,7.50
2013,11,17,17,41,7.50
2013,11,17,17,42,7.50
2013,11,17,17,43,7.40
2013,11,17,17,44,7.40
2013,11,17,17,45,7.40
2013,11,17,17,46,7.40
2013,11,17,17,47,7.40
2013,11,17,17,48,7.40
2013,11,17,17,49,7.40
2013,11,17,17,50,7.40
2013,11,17,17,51,7.40
2013,11,17,17,52,7.40
2013,11,17,17,53,7.40
2013,11,17,17,54,7.40
2013,11,17,17,55,7.40
2013,11,17,17,56,7.40
2013,11,17,17,57,7.40
2013,11,17,17,58,7.40
2013,11,17,17,59,7.40
2013,11,17,18,00,7.40